Date String (YYYY-MM-DD hh:mm:ss) UTC,Instrument flags,absolute air pressure of the measurement (hPa),sample flow rate (lpm),inlet stack bypass flow (lpm),air temperature of the measurement (°C),ambient temperature measured by the external sensor (°C),aerosol sample conditioner tube jacket temperature (°C),OPC LED temperature (°C),internal box temperature (°C),relative humidity of the measurement (%),span deviation,mass concentration of particles derived from Lorenz-Mie calculation of OPC scattering (μg/m³),mass concentration of particles derived from Lorenz-Mie calculation of OPC scattering (μg/m³),mass concentration of particles derived from Lorenz-Mie calculation of OPC scattering (μg/m³)
DateTimeUTC,F1_M11,P_M11,Q1_M11,Q2_M11,T1_M11,T2_M11,T3_M11,T4_M11,T5_M11,U1_M11,ZSPAN_M11,X0_M11,X2_M11,X1_M11
2023-12-22 21:00:00,SystemResetWarning,0828.4,5.00,000.00,026.0,024.4,000.0,034.2,027.3,12.1,0000.0,0009.54,0005.11,0004.74
2023-12-22 21:01:00,SystemResetWarning,0828.4,5.00,000.00,026.0,024.6,000.0,034.2,027.4,12.0,0000.0,0009.47,0005.15,0004.78
2023-12-22 21:02:00,SystemResetWarning,0828.4,5.00,000.00,026.0,024.7,000.0,034.2,027.4,11.8,0000.0,0009.15,0005.16,0004.80
2023-12-22 21:03:00,SystemResetWarning,0828.3,5.00,000.00,026.0,024.9,000.0,034.2,027.5,11.8,0000.0,0008.53,0005.19,0004.82
2023-12-22 21:04:00,SystemResetWarning,0828.3,5.00,000.00,026.1,025.0,000.0,034.2,027.6,11.9,0000.0,0008.71,0005.25,0004.85
2023-12-22 21:05:00,SystemResetWarning,0828.3,5.00,000.00,026.1,025.1,000.0,034.2,027.6,12.0,0000.0,0008.69,0005.27,0004.88
2023-12-22 21:06:00,SystemResetWarning,0828.2,5.00,000.00,026.1,025.2,000.0,034.2,027.7,12.0,0000.0,0009.15,0005.28,0004.90
2023-12-22 21:07:00,SystemResetWarning,0828.2,5.00,000.00,026.2,025.3,000.0,034.3,027.7,11.9,0000.0,0009.12,0005.33,0004.93
2023-12-22 21:08:00,SystemResetWarning,0828.2,5.00,000.00,026.2,025.4,000.0,034.3,027.7,12.0,0000.0,0009.23,0005.37,0004.95
2023-12-22 21:09:00,SystemResetWarning,0828.2,4.99,000.00,026.2,025.4,000.0,034.3,027.7,11.9,0000.0,0009.46,0005.43,0004.96
2023-12-22 21:10:00,SystemResetWarning,0828.2,5.00,000.00,026.3,025.4,000.0,034.3,027.8,11.8,0000.0,0009.79,0005.45,0004.96
2023-12-22 21:11:00,SystemResetWarning,0828.2,5.00,000.00,026.3,024.1,000.0,034.3,027.8,11.8,0000.0,0010.44,0005.46,0004.95
2023-12-22 21:12:00,SystemResetWarning,0828.2,5.01,000.00,026.2,022.8,000.0,034.3,027.6,11.7,0000.0,0010.67,0005.45,0004.94
2023-12-22 21:13:00,SystemResetWarning,0828.2,5.01,000.00,026.1,022.7,000.0,034.3,027.3,11.5,0000.0,0010.67,0005.44,0004.92
2023-12-22 21:14:00,SystemResetWarning,0828.1,5.01,000.00,025.9,023.1,000.0,034.2,027.0,11.7,0000.0,0010.90,0005.41,0004.89
2023-12-22 21:15:00,SystemResetWarning,0828.1,5.00,000.00,025.9,023.4,000.0,034.2,027.0,12.0,0000.0,0011.12,0005.37,0004.87
2023-12-22 21:16:00,SystemResetWarning,0828.1,5.01,000.00,025.9,023.8,000.0,034.2,027.1,12.0,0000.0,0011.57,0005.40,0004.85
2023-12-22 21:17:00,SystemResetWarning,0828.1,4.99,000.00,025.9,024.1,000.0,034.2,027.2,12.0,0000.0,0011.23,0005.40,0004.85
2023-12-22 21:18:00,SystemResetWarning,0828.2,4.99,000.00,025.9,024.3,000.0,034.2,027.3,11.9,0000.0,0011.15,0005.36,0004.84
2023-12-22 21:19:00,SystemResetWarning,0828.2,5.00,000.00,025.9,024.5,000.0,034.1,027.4,11.9,0000.0,0011.22,0005.36,0004.83
2023-12-22 21:20:00,SystemResetWarning,0828.2,5.00,000.00,025.9,024.7,000.0,034.1,027.4,11.9,0000.0,0011.37,0005.34,0004.84
2023-12-22 21:21:00,SystemResetWarning,0828.2,5.02,000.00,026.0,024.8,000.0,034.2,027.5,11.9,0000.0,0011.13,0005.32,0004.84
2023-12-22 21:22:00,SystemResetWarning,0828.2,5.01,000.00,026.0,025.0,000.0,034.2,027.5,11.8,0000.0,0010.82,0005.30,0004.83
2023-12-22 21:23:00,SystemResetWarning,0828.2,5.00,000.00,026.1,025.1,000.0,034.2,027.6,11.7,0000.0,0010.50,0005.29,0004.82
2023-12-22 21:24:00,SystemResetWarning,0828.2,4.98,000.00,026.1,025.2,000.0,034.2,027.6,11.7,0000.0,0010.53,0005.30,0004.81
2023-12-22 21:25:00,SystemResetWarning,0828.2,5.01,000.00,026.1,025.3,000.0,034.2,027.7,11.7,0000.0,0010.44,0005.33,0004.81
2023-12-22 21:26:00,SystemResetWarning,0828.2,5.01,000.00,026.2,025.3,000.0,034.2,027.7,11.7,0000.0,0010.22,0005.34,0004.81
2023-12-22 21:27:00,SystemResetWarning,0828.2,4.98,000.00,026.2,023.9,000.0,034.2,027.7,11.8,0000.0,0009.80,0005.31,0004.80
2023-12-22 21:28:00,SystemResetWarning,0828.1,5.01,000.00,026.1,022.7,000.0,034.2,027.5,11.9,0000.0,0010.03,0005.31,0004.80
2023-12-22 21:29:00,SystemResetWarning,0828.1,5.02,000.00,026.0,022.6,000.0,034.2,027.2,11.7,0000.0,0010.28,0005.35,0004.79
2023-12-22 21:30:00,SystemResetWarning,0828.1,4.98,000.00,025.9,023.0,000.0,034.1,026.9,11.9,0000.0,0010.44,0005.35,0004.79
2023-12-22 21:31:00,SystemResetWarning,0828.1,5.00,000.00,025.8,023.3,000.0,034.1,027.0,11.9,0000.0,0010.98,0005.34,0004.77
2023-12-22 21:32:00,SystemResetWarning,0828.0,5.01,000.00,025.8,023.7,000.0,034.1,027.1,11.9,0000.0,0011.07,0005.35,0004.77
2023-12-22 21:33:00,SystemResetWarning,0828.1,4.98,000.00,025.8,023.9,000.0,034.1,027.1,11.9,0000.0,0010.99,0005.37,0004.78
2023-12-22 21:34:00,SystemResetWarning,0828.1,5.00,000.00,025.8,024.2,000.0,034.1,027.2,12.0,0000.0,0010.71,0005.36,0004.78
2023-12-22 21:35:00,SystemResetWarning,0828.0,5.01,000.00,025.8,024.4,000.0,034.0,027.3,11.9,0000.0,0010.81,0005.39,0004.80
2023-12-22 21:36:00,SystemResetWarning,0828.0,5.01,000.00,025.9,024.6,000.0,034.0,027.4,11.8,0000.0,0010.92,0005.40,0004.80
2023-12-22 21:37:00,SystemResetWarning,0828.0,5.01,000.00,025.9,024.8,000.0,034.1,027.5,11.7,0000.0,0010.83,0005.39,0004.80
2023-12-22 21:38:00,SystemResetWarning,0828.1,5.00,000.00,025.9,024.9,000.0,034.1,027.5,11.6,0000.0,0011.09,0005.40,0004.83
2023-12-22 21:39:00,SystemResetWarning,0828.1,5.00,000.00,026.0,025.0,000.0,034.1,027.6,11.5,0000.0,0011.76,0005.43,0004.84
2023-12-22 21:40:00,SystemResetWarning,0828.1,4.99,000.00,026.0,025.1,000.0,034.1,027.6,11.4,0000.0,0011.51,0005.42,0004.84
2023-12-22 21:41:00,SystemResetWarning,0828.1,4.99,000.00,026.1,025.2,000.0,034.1,027.6,11.4,0000.0,0011.35,0005.40,0004.84
2023-12-22 21:42:00,SystemResetWarning,0828.1,5.01,000.00,026.1,025.3,000.0,034.2,027.7,11.5,0000.0,0010.96,0005.39,0004.84
2023-12-22 21:43:00,SystemResetWarning,0828.1,5.01,000.00,026.1,024.9,000.0,034.2,027.7,11.4,0000.0,0010.96,0005.40,0004.86
2023-12-22 21:44:00,SystemResetWarning,0828.1,4.98,000.00,026.1,023.1,000.0,034.2,027.6,11.4,0000.0,0012.70,0005.40,0004.86
2023-12-22 21:45:00,SystemResetWarning,0828.1,5.01,000.00,026.0,022.5,000.0,034.1,027.4,11.7,0000.0,0013.41,0005.42,0004.88
2023-12-22 21:46:00,SystemResetWarning,0828.1,5.01,000.00,025.9,022.7,000.0,034.1,026.9,11.9,0000.0,0014.05,0005.45,0004.89
2023-12-22 21:47:00,SystemResetWarning,0828.1,5.00,000.00,025.8,023.1,000.0,034.1,026.9,11.8,0000.0,0014.89,0005.41,0004.89
2023-12-22 21:48:00,SystemResetWarning,0828.1,5.00,000.00,025.8,023.4,000.0,034.0,027.0,11.8,0000.0,0015.54,0005.40,0004.89
2023-12-22 21:49:00,SystemResetWarning,0828.1,5.00,000.00,025.8,023.8,000.0,034.0,027.1,11.7,0000.0,0016.21,0005.42,0004.88
2023-12-22 21:50:00,SystemResetWarning,0828.1,5.00,000.00,025.8,024.0,000.0,034.0,027.2,11.7,0000.0,0016.53,0005.42,0004.88
2023-12-22 21:51:00,SystemResetWarning,0828.1,5.00,000.00,025.8,024.3,000.0,034.0,027.2,11.7,0000.0,0016.87,0005.42,0004.88
2023-12-22 21:52:00,SystemResetWarning,0828.1,4.98,000.00,025.8,024.5,000.0,034.0,027.3,11.8,0000.0,0016.77,0005.46,0004.89
2023-12-22 21:53:00,SystemResetWarning,0828.1,5.00,000.00,025.8,024.6,000.0,034.0,027.4,11.7,0000.0,0017.21,0005.49,0004.90
2023-12-22 21:54:00,SystemResetWarning,0828.0,5.00,000.00,025.9,024.8,000.0,034.0,027.4,11.6,0000.0,0016.73,0005.49,0004.90
2023-12-22 21:55:00,SystemResetWarning,0828.0,5.01,000.00,025.9,024.9,000.0,034.0,027.5,11.7,0000.0,0014.87,0005.47,0004.90
2023-12-22 21:56:00,SystemResetWarning,0828.0,5.01,000.00,026.0,025.0,000.0,034.0,027.5,11.6,0000.0,0014.21,0005.47,0004.89
2023-12-22 21:57:00,SystemResetWarning,0828.0,4.99,000.00,026.0,025.1,000.0,034.1,027.6,11.7,0000.0,0013.58,0005.44,0004.88
2023-12-22 21:58:00,SystemResetWarning,0828.0,4.99,000.00,026.1,025.2,000.0,034.1,027.6,11.6,0000.0,0012.65,0005.49,0004.89
2023-12-22 21:59:00,SystemResetWarning,0828.0,4.99,000.00,026.1,025.2,000.0,034.1,027.7,11.4,0000.0,0011.96,0005.51,0004.89
